Home   Weather   Joinville   Past weeks
Flag for Brazil

Past Weather in Joinville, Santa Catarina, Brazil — Yesterday and Last 2 Weeks

Now
48 °F

Clear.


Feels Like: 46 °F
Forecast: 72 / 50 °F
Wind: 6 mph from Southeast

Location: Curitiba Aeroporto

Current Time: May 27, 2020 at 10:37:58 pm

Latest Report: May 27, 2020 at 10:00 pm


Visibility: 10 mi

Pressure: 30.18 "Hg

Humidity: 82%

Dew Point: 43 °F

Location of JoinvilleLocation

Past Weather in Joinville — Graph

°F

Joinville Temperature Yesterday

Maximum temperature yesterday: 64 °F (at 3:00 pm)
Minimum temperature yesterday: 46 °F (at 6:00 am)
Average temperature yesterday: 54 °F

High & Low Weather Summary for the Past Weeks

 TemperatureHumidityPressure
High77 °F (May 18, 2:00 pm)100% (May 13, 5:00 am)30.36 "Hg (May 13, 5:00 am)
Low41 °F (May 27, 6:00 am)28% (May 18, 2:00 pm)29.89 "Hg (May 25, 3:00 pm)
Average58 °F78%30.11 "Hg
* Reported May 12 9:00 pm — May 27 9:00 pm, Joinville. Weather by CustomWeather, © 2020

Note: Actual official high and low records may vary slightly from our data, if they occured in-between our weather recording intervals... More about our weather records

Joinville Weather History for the Previous 24 Hours

Scroll right to see more
 ConditionsComfort  
Time TempWeatherWind HumidityBarometerVisibility
9:00 pm
Wed, May 27
48 °FClear.2 mph87%30.18 "Hg10 mi
8:00 pm50 °FClear.5 mph76%30.18 "Hg10 mi
7:00 pm54 °FPassing clouds.6 mph67%30.15 "HgN/A
6:00 pm57 °FClear.7 mph59%30.12 "Hg10 mi
5:00 pm64 °FPassing clouds.7 mph49%30.12 "HgN/A
4:00 pm70 °FPassing clouds.6 mph33%30.09 "HgN/A
3:00 pm70 °FSunny.2 mph31%30.09 "Hg10 mi
2:00 pm68 °FSunny.5 mph33%30.09 "Hg10 mi
1:00 pm66 °FSunny.6 mph35%30.12 "Hg10 mi
12:00 pm63 °FPassing clouds.5 mph42%30.12 "HgN/A
11:00 am57 °FPassing clouds.6 mph48%30.15 "HgN/A
10:00 am52 °FPassing clouds.7 mph62%30.15 "HgN/A
9:00 am48 °FPassing clouds.6 mph71%30.15 "HgN/A
8:00 am45 °FSunny.2 mph87%30.12 "Hg10 mi
7:00 am43 °FSunny.2 mph87%30.09 "Hg10 mi
6:00 am41 °FClear.2 mph100%30.09 "Hg10 mi
5:00 am45 °FClear.2 mph81%30.07 "Hg10 mi
4:00 am45 °FClear.3 mph81%30.07 "Hg10 mi
3:00 am46 °FClear.6 mph76%30.07 "Hg10 mi
2:00 am46 °FClear.8 mph76%30.07 "Hg10 mi
1:00 am48 °FClear.8 mph71%30.07 "Hg10 mi
12:00 am50 °FClear.8 mph67%30.07 "Hg10 mi
11:00 pm
Tue, May 26
52 °FClear.5 mph62%30.07 "Hg10 mi
10:00 pm52 °FClear.2 mph58%30.04 "Hg10 mi
Weather by CustomWeather, © 2020

See weather overview

Advertising